Year,Month,Day,Hour,Minute,Value (Times are PST for temperature in C)
2009,08,27,08,13,17.50
2009,08,27,08,14,17.50
2009,08,27,08,15,17.50
2009,08,27,08,16,17.60
2009,08,27,08,17,17.60
2009,08,27,08,18,17.60
2009,08,27,08,19,17.70
2009,08,27,08,20,17.70
2009,08,27,08,21,17.70
2009,08,27,08,22,17.80
2009,08,27,08,23,17.80
2009,08,27,08,24,17.80
2009,08,27,08,25,17.90
2009,08,27,08,26,17.90
2009,08,27,08,27,18.00
2009,08,27,08,28,18.00
2009,08,27,08,29,18.10
2009,08,27,08,30,18.10
2009,08,27,08,31,18.20
2009,08,27,08,32,18.20
2009,08,27,08,33,18.30
2009,08,27,08,34,18.30
2009,08,27,08,35,18.40
2009,08,27,08,36,18.50
2009,08,27,08,37,18.60
2009,08,27,08,38,18.60
2009,08,27,08,39,18.70
2009,08,27,08,40,18.70
2009,08,27,08,41,18.80
2009,08,27,08,42,18.80
2009,08,27,08,43,18.80
2009,08,27,08,44,18.90
2009,08,27,08,45,18.90
2009,08,27,08,46,19.00
2009,08,27,08,47,19.00
2009,08,27,08,48,19.10
2009,08,27,08,49,19.10
2009,08,27,08,50,19.20
2009,08,27,08,51,19.30
2009,08,27,08,52,19.40
2009,08,27,08,53,19.50
2009,08,27,08,54,19.60
2009,08,27,08,55,19.60
2009,08,27,08,56,19.70
2009,08,27,08,57,19.80
2009,08,27,08,58,19.80
2009,08,27,08,59,19.80
2009,08,27,09,00,19.90
2009,08,27,09,01,19.90
2009,08,27,09,02,19.90
2009,08,27,09,03,19.90
2009,08,27,09,04,20.00
2009,08,27,09,05,20.00
2009,08,27,09,06,20.00
2009,08,27,09,07,20.10
2009,08,27,09,08,20.10
2009,08,27,09,09,20.10
2009,08,27,09,10,20.20
2009,08,27,09,11,20.20
2009,08,27,09,12,20.20
2009,08,27,09,13,20.30
2009,08,27,09,14,20.30
2009,08,27,09,15,20.30
2009,08,27,09,16,20.30
2009,08,27,09,17,20.30
2009,08,27,09,18,20.30
2009,08,27,09,19,20.30
2009,08,27,09,20,20.30
2009,08,27,09,21,20.30
2009,08,27,09,22,20.20
2009,08,27,09,23,20.20
2009,08,27,09,24,20.20
2009,08,27,09,25,20.20
2009,08,27,09,26,20.20
2009,08,27,09,27,20.20
2009,08,27,09,28,20.10
2009,08,27,09,29,20.10
2009,08,27,09,30,20.10
2009,08,27,09,31,20.10
2009,08,27,09,32,20.00
2009,08,27,09,33,20.00
2009,08,27,09,34,19.90
2009,08,27,09,35,19.80
2009,08,27,09,36,19.80
2009,08,27,09,37,19.70
2009,08,27,09,38,19.70
2009,08,27,09,39,19.70
2009,08,27,09,40,19.80
2009,08,27,09,41,19.80
2009,08,27,09,42,19.90
2009,08,27,09,43,19.90
2009,08,27,09,44,20.00
2009,08,27,09,45,20.00
2009,08,27,09,46,20.10
2009,08,27,09,47,20.10
2009,08,27,09,48,20.10
2009,08,27,09,49,20.10
2009,08,27,09,50,20.00
2009,08,27,09,51,20.00
2009,08,27,09,52,19.90
2009,08,27,09,53,19.90
2009,08,27,09,54,19.90
2009,08,27,09,55,19.90
2009,08,27,09,56,19.90
2009,08,27,09,57,19.90
2009,08,27,09,58,19.90
2009,08,27,09,59,19.90
2009,08,27,10,00,20.00
2009,08,27,10,01,20.00
2009,08,27,10,02,20.10
2009,08,27,10,03,20.10
2009,08,27,10,04,20.20
2009,08,27,10,05,20.30
2009,08,27,10,06,20.30
2009,08,27,10,07,20.40
2009,08,27,10,08,20.50
2009,08,27,10,09,20.60
2009,08,27,10,10,20.60
2009,08,27,10,11,20.60
2009,08,27,10,12,20.70
2009,08,27,10,13,20.70
2009,08,27,10,14,20.70
2009,08,27,10,15,20.70
2009,08,27,10,16,20.70
2009,08,27,10,17,20.70
2009,08,27,10,18,20.70
2009,08,27,10,19,20.70
2009,08,27,10,20,20.70
2009,08,27,10,21,20.70
2009,08,27,10,22,20.70
2009,08,27,10,23,20.70
2009,08,27,10,24,20.70
2009,08,27,10,25,20.70
2009,08,27,10,26,20.70
2009,08,27,10,27,20.70
2009,08,27,10,28,20.60
2009,08,27,10,29,20.60
2009,08,27,10,30,20.50
2009,08,27,10,31,20.50
2009,08,27,10,32,20.40
2009,08,27,10,33,20.40
2009,08,27,10,34,20.40
2009,08,27,10,35,20.50
2009,08,27,10,36,20.50
2009,08,27,10,37,20.60
2009,08,27,10,38,20.60
2009,08,27,10,39,20.70
2009,08,27,10,40,20.70
2009,08,27,10,41,20.60
2009,08,27,10,42,20.60
2009,08,27,10,43,20.50
2009,08,27,10,44,20.50
2009,08,27,10,45,20.50
2009,08,27,10,46,20.40
2009,08,27,10,47,20.50
2009,08,27,10,48,20.50
2009,08,27,10,49,20.60
2009,08,27,10,50,20.70
2009,08,27,10,51,20.80
2009,08,27,10,52,20.90
2009,08,27,10,53,20.90
2009,08,27,10,54,21.00
2009,08,27,10,55,21.10
2009,08,27,10,56,21.10
2009,08,27,10,57,21.20
2009,08,27,10,58,21.20
2009,08,27,10,59,21.20
2009,08,27,11,00,21.30
2009,08,27,11,01,21.30
2009,08,27,11,02,21.30
2009,08,27,11,03,21.30
2009,08,27,11,04,21.40
2009,08,27,11,05,21.40
2009,08,27,11,06,21.50
2009,08,27,11,07,21.60
2009,08,27,11,08,21.60
2009,08,27,11,09,21.70
2009,08,27,11,10,21.70
2009,08,27,11,11,21.80
2009,08,27,11,12,21.80
2009,08,27,11,13,21.80
2009,08,27,11,14,21.90
2009,08,27,11,15,21.90
2009,08,27,11,16,22.00
2009,08,27,11,17,22.10
2009,08,27,11,18,22.10
2009,08,27,11,19,22.10
2009,08,27,11,20,22.10
2009,08,27,11,21,22.10
2009,08,27,11,22,22.00
2009,08,27,11,23,22.00
2009,08,27,11,24,22.00
2009,08,27,11,25,22.00
2009,08,27,11,26,22.00
2009,08,27,11,27,22.00
2009,08,27,11,28,22.10
2009,08,27,11,29,22.10
2009,08,27,11,30,22.20
2009,08,27,11,31,22.20
2009,08,27,11,32,22.30
2009,08,27,11,33,22.30
2009,08,27,11,34,22.30
2009,08,27,11,35,22.30
2009,08,27,11,36,22.20
2009,08,27,11,37,22.00
2009,08,27,11,38,21.90
2009,08,27,11,39,21.90
2009,08,27,11,40,21.80
2009,08,27,11,41,21.80
2009,08,27,11,42,21.80
2009,08,27,11,43,21.90
2009,08,27,11,44,21.90
2009,08,27,11,45,22.00
2009,08,27,11,46,22.10
2009,08,27,11,47,22.10
2009,08,27,11,48,22.10
2009,08,27,11,49,22.20
2009,08,27,11,50,22.20
2009,08,27,11,51,22.20
2009,08,27,11,52,22.30
2009,08,27,11,53,22.30
2009,08,27,11,54,22.40
2009,08,27,11,55,22.40
2009,08,27,11,56,22.50
2009,08,27,11,57,22.50
2009,08,27,11,58,22.60
2009,08,27,11,59,22.60
2009,08,27,12,00,22.50
2009,08,27,12,01,22.50
2009,08,27,12,02,22.50
2009,08,27,12,03,22.40
2009,08,27,12,04,22.40
2009,08,27,12,05,22.50
2009,08,27,12,06,22.60
2009,08,27,12,07,22.70
2009,08,27,12,08,22.80
2009,08,27,12,09,22.80
2009,08,27,12,10,22.80
2009,08,27,12,11,22.80
2009,08,27,12,12,22.80
2009,08,27,12,13,22.80
2009,08,27,12,14,22.90
2009,08,27,12,15,22.90
2009,08,27,12,16,22.90
2009,08,27,12,17,22.90
2009,08,27,12,18,23.00
2009,08,27,12,19,23.00
2009,08,27,12,20,22.90
2009,08,27,12,21,22.90
2009,08,27,12,22,22.90
2009,08,27,12,23,22.90
2009,08,27,12,24,22.90
2009,08,27,12,25,22.90
2009,08,27,12,26,22.90
2009,08,27,12,27,22.90
2009,08,27,12,28,22.80
2009,08,27,12,29,22.80
2009,08,27,12,30,22.80
2009,08,27,12,31,22.80
2009,08,27,12,32,22.80
2009,08,27,12,33,22.80
2009,08,27,12,34,22.80
2009,08,27,12,35,22.80
2009,08,27,12,36,22.80
2009,08,27,12,37,22.80
2009,08,27,12,38,22.70
2009,08,27,12,39,22.70
2009,08,27,12,40,22.70
2009,08,27,12,41,22.70
2009,08,27,12,42,22.70
2009,08,27,12,43,22.60
2009,08,27,12,44,22.60
2009,08,27,12,45,22.60
2009,08,27,12,46,22.70
2009,08,27,12,47,22.70
2009,08,27,12,48,22.80
2009,08,27,12,49,22.80
2009,08,27,12,50,22.80
2009,08,27,12,51,22.90
2009,08,27,12,52,22.90
2009,08,27,12,53,22.80
2009,08,27,12,54,22.80
2009,08,27,12,55,22.80
2009,08,27,12,56,22.70
2009,08,27,12,57,22.60
2009,08,27,12,58,22.50
2009,08,27,12,59,22.50
2009,08,27,13,00,22.40
2009,08,27,13,01,22.40
2009,08,27,13,02,22.40
2009,08,27,13,03,22.50
2009,08,27,13,04,22.50
2009,08,27,13,05,22.60
2009,08,27,13,06,22.70
2009,08,27,13,07,22.80
2009,08,27,13,08,22.70
2009,08,27,13,09,22.80
2009,08,27,13,10,22.70
2009,08,27,13,11,22.70
2009,08,27,13,12,22.70
2009,08,27,13,13,22.70
2009,08,27,13,14,22.70
2009,08,27,13,15,22.70
2009,08,27,13,16,22.60
2009,08,27,13,17,22.60
2009,08,27,13,18,22.60
2009,08,27,13,19,22.70
2009,08,27,13,20,22.70
2009,08,27,13,21,22.80
2009,08,27,13,22,22.90
2009,08,27,13,23,23.00
2009,08,27,13,24,23.10
2009,08,27,13,25,23.20
2009,08,27,13,26,23.30
2009,08,27,13,27,23.40
2009,08,27,13,28,23.50
2009,08,27,13,29,23.60
2009,08,27,13,30,23.70
2009,08,27,13,31,23.70
2009,08,27,13,32,23.80
2009,08,27,13,33,23.80
2009,08,27,13,34,23.90
2009,08,27,13,35,23.90
2009,08,27,13,36,23.90
2009,08,27,13,37,24.00
2009,08,27,13,38,24.00
2009,08,27,13,39,24.00
2009,08,27,13,40,24.00
2009,08,27,13,41,24.00
2009,08,27,13,42,24.00
2009,08,27,13,43,23.90
2009,08,27,13,44,23.90
2009,08,27,13,45,23.80
2009,08,27,13,46,23.80
2009,08,27,13,47,23.80
2009,08,27,13,48,23.70
2009,08,27,13,49,23.70
2009,08,27,13,50,23.70
2009,08,27,13,51,23.70
2009,08,27,13,52,23.70
2009,08,27,13,53,23.70
2009,08,27,13,54,23.70
2009,08,27,13,55,23.70
2009,08,27,13,56,23.80
2009,08,27,13,57,23.80
2009,08,27,13,58,23.80
2009,08,27,13,59,23.80
2009,08,27,14,00,23.90
2009,08,27,14,01,23.90
2009,08,27,14,02,24.00
2009,08,27,14,03,24.00
2009,08,27,14,04,23.90
2009,08,27,14,05,23.90
2009,08,27,14,06,23.90
2009,08,27,14,07,23.90
2009,08,27,14,08,23.80
2009,08,27,14,09,23.80
2009,08,27,14,10,23.80
2009,08,27,14,11,23.80
2009,08,27,14,12,23.80
2009,08,27,14,13,23.80
2009,08,27,14,14,23.90
2009,08,27,14,15,23.90
2009,08,27,14,16,23.90
2009,08,27,14,17,23.90
2009,08,27,14,18,23.90
2009,08,27,14,19,23.90
2009,08,27,14,20,23.80
2009,08,27,14,21,23.80
2009,08,27,14,22,23.90
2009,08,27,14,23,23.90
2009,08,27,14,24,23.90
2009,08,27,14,25,24.00
2009,08,27,14,26,24.00
2009,08,27,14,27,24.00
2009,08,27,14,28,24.00
2009,08,27,14,29,24.00
2009,08,27,14,30,24.10
2009,08,27,14,31,24.10
2009,08,27,14,32,24.10
2009,08,27,14,33,24.20
2009,08,27,14,34,24.30
2009,08,27,14,35,24.30
2009,08,27,14,36,24.40
2009,08,27,14,37,24.40
2009,08,27,14,38,24.50
2009,08,27,14,39,24.50
2009,08,27,14,40,24.60
2009,08,27,14,41,24.60
2009,08,27,14,42,24.60
2009,08,27,14,43,24.60
2009,08,27,14,44,24.60
2009,08,27,14,45,24.60
2009,08,27,14,46,24.70
2009,08,27,14,47,24.70
2009,08,27,14,48,24.80
2009,08,27,14,49,24.90
2009,08,27,14,50,24.90
2009,08,27,14,51,25.00
2009,08,27,14,52,25.00
2009,08,27,14,53,25.10
2009,08,27,14,54,25.10
2009,08,27,14,55,25.10
2009,08,27,14,56,25.10
2009,08,27,14,57,25.10
2009,08,27,14,58,25.00
2009,08,27,14,59,24.90
2009,08,27,15,00,24.80
2009,08,27,15,01,24.80
2009,08,27,15,02,24.70
2009,08,27,15,03,24.60
2009,08,27,15,04,24.50
2009,08,27,15,05,24.50
2009,08,27,15,06,24.50
2009,08,27,15,07,24.50
2009,08,27,15,08,24.50
2009,08,27,15,09,24.60
2009,08,27,15,10,24.60
2009,08,27,15,11,24.70
2009,08,27,15,12,24.80
2009,08,27,15,13,24.90
2009,08,27,15,14,24.90
2009,08,27,15,15,25.00
2009,08,27,15,16,25.10
2009,08,27,15,17,25.10
2009,08,27,15,18,25.20
2009,08,27,15,19,25.20
2009,08,27,15,20,25.20
2009,08,27,15,21,25.20
2009,08,27,15,22,25.20
2009,08,27,15,23,25.30
2009,08,27,15,24,25.30
2009,08,27,15,25,25.40
2009,08,27,15,26,25.60
2009,08,27,15,27,25.70
2009,08,27,15,28,25.80
2009,08,27,15,29,25.90
2009,08,27,15,30,26.00
2009,08,27,15,31,26.00
2009,08,27,15,32,26.10
2009,08,27,15,33,26.20
2009,08,27,15,34,26.20
2009,08,27,15,35,26.20
2009,08,27,15,36,26.20
2009,08,27,15,37,26.20
2009,08,27,15,38,26.20
2009,08,27,15,39,26.10
2009,08,27,15,40,26.00
2009,08,27,15,41,26.00
2009,08,27,15,42,25.90
2009,08,27,15,43,25.90
2009,08,27,15,44,25.80
2009,08,27,15,45,25.80
2009,08,27,15,46,25.80
2009,08,27,15,47,25.70
2009,08,27,15,48,25.70
2009,08,27,15,49,25.70
2009,08,27,15,50,25.60
2009,08,27,15,51,25.60
2009,08,27,15,52,25.70
2009,08,27,15,53,25.70
2009,08,27,15,54,25.70
2009,08,27,15,55,25.70
2009,08,27,15,56,25.70
2009,08,27,15,57,25.70
2009,08,27,15,58,25.70
2009,08,27,15,59,25.70
2009,08,27,16,00,25.70
2009,08,27,16,01,25.70
2009,08,27,16,02,25.70
2009,08,27,16,03,25.60
2009,08,27,16,04,25.60
2009,08,27,16,05,25.60
2009,08,27,16,06,25.50
2009,08,27,16,07,25.50
2009,08,27,16,08,25.50
2009,08,27,16,09,25.50
2009,08,27,16,10,25.50
2009,08,27,16,11,25.50
2009,08,27,16,12,25.60
2009,08,27,16,13,25.60
2009,08,27,16,14,25.60
2009,08,27,16,15,25.70
2009,08,27,16,16,25.80
2009,08,27,16,17,25.90
2009,08,27,16,18,25.90
2009,08,27,16,19,25.90
2009,08,27,16,20,26.10
2009,08,27,16,21,26.10
2009,08,27,16,22,26.20
2009,08,27,16,23,26.30
2009,08,27,16,24,26.30
2009,08,27,16,25,26.40
2009,08,27,16,26,26.50
2009,08,27,16,27,26.50
2009,08,27,16,28,26.50
2009,08,27,16,29,26.50
2009,08,27,16,30,26.50
2009,08,27,16,31,26.50
2009,08,27,16,32,26.50
2009,08,27,16,33,26.40
2009,08,27,16,34,26.40
2009,08,27,16,35,26.40
2009,08,27,16,36,26.30
2009,08,27,16,37,26.20
2009,08,27,16,38,26.20
2009,08,27,16,39,26.10
2009,08,27,16,40,26.10
2009,08,27,16,41,26.10
2009,08,27,16,42,26.10
2009,08,27,16,43,26.00
2009,08,27,16,44,25.90
2009,08,27,16,45,25.90
2009,08,27,16,46,25.80
2009,08,27,16,47,25.70
2009,08,27,16,48,25.60
2009,08,27,16,49,25.60
2009,08,27,16,50,25.50
2009,08,27,16,51,25.50
2009,08,27,16,52,25.50
2009,08,27,16,53,25.40
2009,08,27,16,54,25.40
2009,08,27,16,55,25.30
2009,08,27,16,56,25.30
2009,08,27,16,57,25.40
2009,08,27,16,58,25.40
2009,08,27,16,59,25.50
2009,08,27,17,00,25.60
2009,08,27,17,01,25.60
2009,08,27,17,02,25.70
2009,08,27,17,03,25.70
2009,08,27,17,04,25.70
2009,08,27,17,05,25.70
2009,08,27,17,06,25.80
2009,08,27,17,07,25.80
2009,08,27,17,08,25.80
2009,08,27,17,09,25.80
2009,08,27,17,10,25.80
2009,08,27,17,11,25.80
2009,08,27,17,12,25.80
2009,08,27,17,13,25.80
2009,08,27,17,14,25.80
2009,08,27,17,15,25.70
2009,08,27,17,16,25.70
2009,08,27,17,17,25.60
2009,08,27,17,18,25.50
2009,08,27,17,19,25.40
2009,08,27,17,20,25.40
2009,08,27,17,21,25.40
2009,08,27,17,22,25.40
2009,08,27,17,23,25.40
2009,08,27,17,24,25.40
2009,08,27,17,25,25.40
2009,08,27,17,26,25.50
2009,08,27,17,27,25.60
2009,08,27,17,28,25.70
2009,08,27,17,29,25.80
2009,08,27,17,30,25.90
2009,08,27,17,31,26.00
2009,08,27,17,32,26.20
2009,08,27,17,33,26.40
2009,08,27,17,34,26.50
2009,08,27,17,35,26.70
2009,08,27,17,36,26.80
2009,08,27,17,37,26.90
2009,08,27,17,38,27.00
2009,08,27,17,39,27.10
2009,08,27,17,40,27.20
2009,08,27,17,41,27.40
2009,08,27,17,42,27.60
2009,08,27,17,43,27.80
2009,08,27,17,44,28.00
2009,08,27,17,45,28.10
2009,08,27,17,46,28.20
2009,08,27,17,47,28.30
2009,08,27,17,48,28.40
2009,08,27,17,49,28.40
2009,08,27,17,50,28.50
2009,08,27,17,51,28.50
2009,08,27,17,52,28.60
2009,08,27,17,53,28.70
2009,08,27,17,54,28.80
2009,08,27,17,55,28.90
2009,08,27,17,56,29.00
2009,08,27,17,57,29.10
2009,08,27,17,58,29.10
2009,08,27,17,59,29.20
2009,08,27,18,00,29.20
2009,08,27,18,01,29.10
2009,08,27,18,02,29.10
2009,08,27,18,03,29.00
2009,08,27,18,04,28.90
2009,08,27,18,05,28.80
2009,08,27,18,06,28.80
2009,08,27,18,07,28.80
2009,08,27,18,08,28.70
2009,08,27,18,09,28.60
2009,08,27,18,10,28.50
2009,08,27,18,11,28.40
2009,08,27,18,12,28.30
2009,08,27,18,13,28.20
2009,08,27,18,14,28.10
2009,08,27,18,15,28.00
2009,08,27,18,16,27.90
2009,08,27,18,17,27.90
2009,08,27,18,18,27.90
2009,08,27,18,19,27.90
2009,08,27,18,20,27.90
2009,08,27,18,21,27.90
2009,08,27,18,22,27.90
2009,08,27,18,23,27.90
2009,08,27,18,24,27.90
2009,08,27,18,25,27.90
2009,08,27,18,26,27.90
2009,08,27,18,27,27.90
